User: anonymous   Login
Location: Unspecified
(0.0000°N, 0.0000°E)
Time: 06:47:09
(UTC+00:00)
Language:

SJ-12 - Orbit

View from above orbital plane
View from above orbital plane
View from above satellite
View from above satellite

Ground track
Ground track

The orbit data is extracted from the following two-line orbital elements,

1 36596U 10027A   21169.69855939  .00000344  00000-0  34933-4 0  9999
2 36596  97.6849 157.7198 0012227 163.6796 196.4821 14.96983859600575
Epoch (UTC): 18 June 2021 16:45:55
Eccentricity: 0.0012227
inclination: 97.6849°
perigee height: 568 km
apogee height: 585 km
right ascension of ascending node: 157.7198°
argument of perigee: 163.6796°
revolutions per day: 14.96983859
mean anomaly at epoch: 196.4821°
orbit number at epoch: 60057

The dashed part of the orbit path shows where the satellite is in the earth's shadow,  

DLR